^^

..:: Storico WU ::..




Lo storico viene creato da WUnderground con i dati che la stazione Meteomincio invia al loro server. L' aggiornamento viene fatto ogni 5 minuti circa, tuttavia possono esserci intervalli pił ampi a causa di errori, interruzioni di servizio o problemi nell' invio tramite FTP.


Storico stazione MeteoMincio
Giorno Sommario per Febbario 24, 2022 Unità:  Inglese    Metrico   Entrambi
Giorno Settimana Mese Anno
  Max: Min: Media:
Temperatura: 57.2 °F 37.4 °F 45.9 °F
Dew Point: 42.8 °F 33.8 °F 37.8 °F
Umidità: 92% 47% 75%
Velocità vento: 5.6mph 0mph 2.3mph
Raffica: 8.1mph - -
Direzione- - SSE
Pressione: 30.3 in 30.1 in -
Precipitazioni: 0 in    
 
 
Tabulato Dati per Febbario 24, 2022
Ora Temperatura Dew Point Pressione Direzione Velocità vento Raffica Umidità Intensità pioggia (oraria) Info solare Situazione
00:04 42.8 °F 39.2 °F 30.3 in NE 4.3 mph 6.2 mph 84% 0 in 0.00 W/m2 unknown
00:09 42.8 °F 39.2 °F 30.3 in NE 5 mph 6.2 mph 84% 0 in 0.00 W/m2 unknown
00:14 42.8 °F 39.2 °F 30.3 in NE 5 mph 6.8 mph 84% 0 in 0.00 W/m2 unknown
00:19 42.8 °F 39.2 °F 30.3 in NE 5 mph 6.8 mph 84% 0 in 0.00 W/m2 unknown
00:24 42.8 °F 37.4 °F 30.3 in NE 5 mph 6.2 mph 84% 0 in 0.00 W/m2 unknown
00:29 42.8 °F 37.4 °F 30.3 in NE 3.7 mph 6.2 mph 84% 0 in 0.00 W/m2 unknown
00:34 42.8 °F 37.4 °F 30.3 in NE 3.7 mph 5 mph 84% 0 in 0.00 W/m2 unknown
00:39 42.8 °F 37.4 °F 30.3 in ENE 3.1 mph 5 mph 84% 0 in 0.00 W/m2 unknown
00:44 42.8 °F 37.4 °F 30.3 in NE 3.7 mph 5 mph 84% 0 in 0.00 W/m2 unknown
00:49 42.8 °F 37.4 °F 30.3 in NE 3.7 mph 5 mph 84% 0 in 0.00 W/m2 unknown
00:54 42.8 °F 37.4 °F 30.3 in NE 3.1 mph 5 mph 84% 0 in 0.00 W/m2 unknown
00:59 42.8 °F 37.4 °F 30.3 in NE 3.7 mph 3.7 mph 84% 0 in 0.00 W/m2 unknown
01:04 42.8 °F 37.4 °F 30.3 in NE 3.7 mph 3.7 mph 84% 0 in 0.00 W/m2 unknown
01:09 42.8 °F 37.4 °F 30.3 in NE 3.1 mph 3.7 mph 84% 0 in 0.00 W/m2 unknown
01:14 41 °F 37.4 °F 30.3 in NNE 3.7 mph 3.7 mph 84% 0 in 0.00 W/m2 unknown
01:19 41 °F 37.4 °F 30.3 in NE 3.7 mph 3.7 mph 84% 0 in 0.00 W/m2 unknown
01:24 41 °F 37.4 °F 30.3 in NE 3.7 mph 5 mph 83% 0 in 0.00 W/m2 unknown
01:29 42.8 °F 37.4 °F 30.3 in NE 3.1 mph 5 mph 83% 0 in 0.00 W/m2 unknown
01:34 42.8 °F 37.4 °F 30.3 in ENE 3.1 mph 5 mph 83% 0 in 0.00 W/m2 unknown
01:39 42.8 °F 37.4 °F 30.3 in NE 3.1 mph 5 mph 82% 0 in 0.00 W/m2 unknown
01:44 42.8 °F 37.4 °F 30.3 in ENE 3.1 mph 3.7 mph 82% 0 in 0.00 W/m2 unknown
01:49 42.8 °F 37.4 °F 30.3 in ENE 1.9 mph 3.7 mph 83% 0 in 0.00 W/m2 unknown
01:54 41 °F 37.4 °F 30.3 in ENE 1.9 mph 2.5 mph 84% 0 in 0.00 W/m2 unknown
01:59 41 °F 35.6 °F 30.3 in ENE 1.9 mph 2.5 mph 85% 0 in 0.00 W/m2 unknown
02:04 39.2 °F 35.6 °F 30.3 in ENE 1.9 mph 3.7 mph 86% 0 in 0.00 W/m2 unknown
02:09 39.2 °F 35.6 °F 30.3 in ENE 1.9 mph 3.1 mph 87% 0 in 0.00 W/m2 unknown
02:14 39.2 °F 35.6 °F 30.3 in ENE 1.2 mph 1.9 mph 87% 0 in 0.00 W/m2 unknown
02:19 39.2 °F 35.6 °F 30.3 in ENE 1.2 mph 2.5 mph 87% 0 in 0.00 W/m2 unknown
02:24 39.2 °F 35.6 °F 30.3 in ENE 1.2 mph 1.9 mph 87% 0 in 0.00 W/m2 unknown
02:29 39.2 °F 37.4 °F 30.3 in Calm   1.2 mph 92% 0 in 0.00 W/m2 unknown
02:34 39.2 °F 35.6 °F 30.3 in Calm   1.2 mph 88% 0 in 0.00 W/m2 unknown
02:39 39.2 °F 35.6 °F 30.3 in ENE 1.2 mph 2.5 mph 88% 0 in 0.00 W/m2 unknown
02:44 39.2 °F 35.6 °F 30.3 in East 1.2 mph 2.5 mph 88% 0 in 0.00 W/m2 unknown
02:49 39.2 °F 35.6 °F 30.3 in East 1.2 mph 2.5 mph 88% 0 in 0.00 W/m2 unknown
02:54 39.2 °F 35.6 °F 30.3 in Calm   1.9 mph 88% 0 in 0.00 W/m2 unknown
02:59 37.4 °F 33.8 °F 30.3 in Calm     87% 0 in 0.00 W/m2 unknown
03:04 37.4 °F 33.8 °F 30.3 in Calm     89% 0 in 0.00 W/m2 unknown
03:09 37.4 °F 33.8 °F 30.3 in Calm     89% 0 in 0.00 W/m2 unknown
03:14 37.4 °F 33.8 °F 30.3 in Calm     89% 0 in 0.00 W/m2 unknown
03:19 37.4 °F 33.8 °F 30.3 in Calm     89% 0 in 0.00 W/m2 unknown
03:24 37.4 °F 33.8 °F 30.3 in Calm     89% 0 in 0.00 W/m2 unknown
03:29 37.4 °F 33.8 °F 30.3 in Calm     89% 0 in 0.00 W/m2 unknown
03:34 37.4 °F 35.6 °F 30.3 in Calm   1.2 mph 89% 0 in 0.00 W/m2 unknown
03:39 37.4 °F 33.8 °F 30.3 in East 3.1 mph 5 mph 88% 0 in 0.00 W/m2 unknown
03:44 37.4 °F 33.8 °F 30.3 in East 3.1 mph 5 mph 88% 0 in 0.00 W/m2 unknown
03:49 37.4 °F 33.8 °F 30.3 in ENE 3.1 mph 5 mph 89% 0 in 0.00 W/m2 unknown
03:54 37.4 °F 35.6 °F 30.3 in East 3.1 mph 5 mph 89% 0 in 0.00 W/m2 unknown
03:59 37.4 °F 35.6 °F 30.3 in East 3.1 mph 4.3 mph 88% 0 in 0.00 W/m2 unknown
04:04 37.4 °F 35.6 °F 30.3 in East 4.3 mph 6.2 mph 89% 0 in 0.00 W/m2 unknown
04:09 37.4 °F 35.6 °F 30.3 in East 4.3 mph 6.2 mph 89% 0 in 0.00 W/m2 unknown
04:14 37.4 °F 33.8 °F 30.3 in ENE 3.7 mph 5 mph 89% 0 in 0.00 W/m2 unknown
04:19 37.4 °F 35.6 °F 30.3 in ENE 3.1 mph 5 mph 90% 0 in 0.00 W/m2 unknown
04:24 37.4 °F 35.6 °F 30.3 in ENE 3.1 mph 5 mph 90% 0 in 0.00 W/m2 unknown
04:29 37.4 °F 35.6 °F 30.3 in East 4.3 mph 5 mph 89% 0 in 0.00 W/m2 unknown
04:34 37.4 °F 35.6 °F 30.3 in ENE 4.3 mph 5 mph 89% 0 in 0.00 W/m2 unknown
04:39 37.4 °F 35.6 °F 30.3 in ENE 3.1 mph 5 mph 89% 0 in 0.00 W/m2 unknown
04:44 37.4 °F 35.6 °F 30.3 in ENE 2.5 mph 3.7 mph 89% 0 in 0.00 W/m2 unknown
04:49 37.4 °F 35.6 °F 30.3 in East 2.5 mph 3.7 mph 88% 0 in 0.00 W/m2 unknown
04:54 37.4 °F 33.8 °F 30.3 in ENE 2.5 mph 3.7 mph 88% 0 in 0.00 W/m2 unknown
04:59 37.4 °F 33.8 °F 30.3 in ENE 2.5 mph 3.7 mph 88% 0 in 0.00 W/m2 unknown
05:04 37.4 °F 33.8 °F 30.3 in NE 1.9 mph 3.7 mph 88% 0 in 0.00 W/m2 unknown
05:09 37.4 °F 33.8 °F 30.3 in NE 1.9 mph 3.7 mph 87% 0 in 0.00 W/m2 unknown
05:14 37.4 °F 33.8 °F 30.3 in NE 1.2 mph 3.1 mph 86% 0 in 0.00 W/m2 unknown
05:19 37.4 °F 33.8 °F 30.3 in NE 2.5 mph 3.7 mph 88% 0 in 0.00 W/m2 unknown
05:24 37.4 °F 33.8 °F 30.3 in NE 2.5 mph 3.7 mph 88% 0 in 0.00 W/m2 unknown
05:29 37.4 °F 33.8 °F 30.3 in NE 2.5 mph 3.7 mph 88% 0 in 0.00 W/m2 unknown
05:34 37.4 °F 33.8 °F 30.3 in NE 2.5 mph 3.7 mph 87% 0 in 0.00 W/m2 unknown
05:39 37.4 °F 33.8 °F 30.3 in NE 2.5 mph 3.7 mph 87% 0 in 0.00 W/m2 unknown
05:44 37.4 °F 33.8 °F 30.3 in NE 3.1 mph 3.7 mph 87% 0 in 0.00 W/m2 unknown
05:49 37.4 °F 33.8 °F 30.3 in ENE 3.1 mph 5 mph 87% 0 in 0.00 W/m2 unknown
05:54 37.4 °F 33.8 °F 30.3 in ENE 3.1 mph 5 mph 87% 0 in 0.00 W/m2 unknown
05:59 37.4 °F 33.8 °F 30.3 in ENE 3.1 mph 5 mph 87% 0 in 0.00 W/m2 unknown
06:04 37.4 °F 33.8 °F 30.3 in ENE 3.1 mph 5 mph 87% 0 in 0.00 W/m2 unknown
06:09 37.4 °F 33.8 °F 30.3 in ENE 2.5 mph 3.7 mph 87% 0 in 0.00 W/m2 unknown
06:14 37.4 °F 33.8 °F 30.3 in ENE 2.5 mph 3.7 mph 86% 0 in 0.00 W/m2 unknown
06:19 37.4 °F 33.8 °F 30.3 in ENE 2.5 mph 3.7 mph 86% 0 in 0.00 W/m2 unknown
06:24 37.4 °F 33.8 °F 30.3 in ENE 1.9 mph 3.7 mph 86% 0 in 0.00 W/m2 unknown
06:29 37.4 °F 33.8 °F 30.3 in ENE 1.9 mph 3.1 mph 86% 0 in 0.00 W/m2 unknown
06:34 37.4 °F 33.8 °F 30.3 in ENE 1.2 mph 2.5 mph 87% 0 in 0.00 W/m2 unknown
06:39 37.4 °F 33.8 °F 30.3 in ENE 1.2 mph 2.5 mph 87% 0 in 0.00 W/m2 unknown
06:44 37.4 °F 33.8 °F 30.3 in ENE 1.2 mph 2.5 mph 87% 0 in 0.00 W/m2 unknown
06:49 37.4 °F 33.8 °F 30.3 in North 1.9 mph 3.7 mph 88% 0 in 0.00 W/m2 unknown
06:54 37.4 °F 33.8 °F 30.3 in NNW 1.9 mph 3.1 mph 88% 0 in 0.00 W/m2 unknown
06:59 37.4 °F 33.8 °F 30.3 in NW 1.9 mph 2.5 mph 88% 0 in 5.00 W/m2 unknown
07:04 37.4 °F 33.8 °F 30.3 in NNW 1.9 mph 3.7 mph 88% 0 in 7.00 W/m2 unknown
07:09 37.4 °F 33.8 °F 30.3 in North 1.9 mph 3.7 mph 88% 0 in 11.00 W/m2 unknown
07:14 37.4 °F 33.8 °F 30.3 in NE 3.1 mph 3.7 mph 88% 0 in 14.00 W/m2 unknown
07:19 37.4 °F 33.8 °F 30.3 in NE 3.7 mph 3.7 mph 87% 0 in 16.00 W/m2 unknown
07:24 37.4 °F 33.8 °F 30.3 in NNE 3.1 mph 3.7 mph 87% 0 in 21.00 W/m2 unknown
07:29 37.4 °F 33.8 °F 30.3 in NNE 3.1 mph 3.7 mph 86% 0 in 21.00 W/m2 unknown
07:34 39.2 °F 33.8 °F 30.3 in NNE 3.1 mph 3.7 mph 85% 0 in 30.00 W/m2 unknown
07:39 39.2 °F 33.8 °F 30.3 in NNE 2.5 mph 3.7 mph 85% 0 in 35.00 W/m2 unknown
07:44 39.2 °F 33.8 °F 30.3 in NNE 2.5 mph 3.7 mph 84% 0 in 35.00 W/m2 unknown
07:49 39.2 °F 33.8 °F 30.3 in North 1.2 mph 3.7 mph 84% 0 in 42.00 W/m2 unknown
07:54 39.2 °F 33.8 °F 30.3 in North 1.2 mph 3.1 mph 84% 0 in 49.00 W/m2 unknown
07:59 39.2 °F 33.8 °F 30.3 in Calm   1.9 mph 84% 0 in 56.00 W/m2 unknown
08:04 39.2 °F 33.8 °F 30.3 in Calm   1.2 mph 84% 0 in 70.00 W/m2 unknown
08:09 39.2 °F 33.8 °F 30.3 in Calm     85% 0 in 84.00 W/m2 unknown
08:14 39.2 °F 35.6 °F 30.3 in Calm     85% 0 in 100.00 W/m2 unknown
08:19 39.2 °F 35.6 °F 30.3 in NE 1.9 mph 3.1 mph 86% 0 in 107.00 W/m2 unknown
08:24 41 °F 35.6 °F 30.3 in NE 2.5 mph 3.7 mph 85% 0 in 120.00 W/m2 unknown
08:29 41 °F 35.6 °F 30.3 in NE 1.9 mph 3.7 mph 83% 0 in 132.00 W/m2 unknown
08:34 41 °F 35.6 °F 30.3 in NE 1.2 mph 3.1 mph 81% 0 in 160.00 W/m2 unknown
08:39 41 °F 35.6 °F 30.3 in ENE 1.2 mph 3.7 mph 81% 0 in 160.00 W/m2 unknown
08:44 41 °F 35.6 °F 30.3 in ENE 1.2 mph 3.1 mph 81% 0 in 160.00 W/m2 unknown
08:49 42.8 °F 37.4 °F 30.3 in ENE 1.2 mph 2.5 mph 82% 0 in 174.00 W/m2 unknown
08:54 42.8 °F 37.4 °F 30.3 in ENE 1.2 mph 2.5 mph 82% 0 in 183.00 W/m2 unknown
08:59 42.8 °F 37.4 °F 30.3 in ENE 1.9 mph 3.7 mph 82% 0 in 186.00 W/m2 unknown
09:04 42.8 °F 37.4 °F 30.3 in ENE 1.9 mph 3.7 mph 82% 0 in 197.00 W/m2 unknown
09:09 42.8 °F 37.4 °F 30.3 in ENE 1.2 mph 3.1 mph 81% 0 in 181.00 W/m2 unknown
09:14 42.8 °F 37.4 °F 30.3 in ENE 0.6 mph 1.2 mph 82% 0 in 195.00 W/m2 unknown
09:19 44.6 °F 37.4 °F 30.3 in Calm   1.2 mph 82% 0 in 260.00 W/m2 unknown
09:24 44.6 °F 39.2 °F 30.3 in Calm   1.2 mph 81% 0 in 290.00 W/m2 unknown
09:29 44.6 °F 39.2 °F 30.3 in Calm   1.2 mph 77% 0 in 281.00 W/m2 unknown
09:34 46.4 °F 39.2 °F 30.3 in East 1.2 mph 2.5 mph 78% 0 in 258.00 W/m2 unknown
09:39 46.4 °F 39.2 °F 30.3 in East 1.2 mph 2.5 mph 76% 0 in 360.00 W/m2 unknown
09:44 48.2 °F 39.2 °F 30.3 in East 1.9 mph 3.7 mph 77% 0 in 380.00 W/m2 unknown
09:49 48.2 °F 39.2 °F 30.3 in ESE 2.5 mph 3.7 mph 74% 0 in 371.00 W/m2 unknown
09:54 48.2 °F 39.2 °F 30.3 in ESE 1.9 mph 3.7 mph 72% 0 in 332.00 W/m2 unknown
09:59 48.2 °F 39.2 °F 30.3 in SE 1.9 mph 3.7 mph 73% 0 in 313.00 W/m2 unknown
10:04 48.2 °F 39.2 °F 30.3 in East 3.1 mph 5 mph 72% 0 in 332.00 W/m2 unknown
10:09 48.2 °F 39.2 °F 30.3 in East 3.1 mph 5 mph 71% 0 in 327.00 W/m2 unknown
10:14 48.2 °F 39.2 °F 30.3 in ESE 3.7 mph 5 mph 69% 0 in 306.00 W/m2 unknown
10:19 48.2 °F 39.2 °F 30.2 in East 3.1 mph 6.2 mph 68% 0 in 383.00 W/m2 unknown
10:24 50 °F 39.2 °F 30.2 in East 3.1 mph 6.2 mph 69% 0 in 381.00 W/m2 unknown
10:29 50 °F 39.2 °F 30.2 in East 4.3 mph 6.2 mph 68% 0 in 239.00 W/m2 unknown
10:34 48.2 °F 39.2 °F 30.2 in East 2.5 mph 6.2 mph 67% 0 in 223.00 W/m2 unknown
10:39 48.2 °F 39.2 °F 30.2 in ENE 4.3 mph 6.2 mph 67% 0 in 230.00 W/m2 unknown
10:44 50 °F 37.4 °F 30.2 in East 3.7 mph 6.2 mph 65% 0 in 301.00 W/m2 unknown
10:49 50 °F 37.4 °F 30.3 in ESE 3.1 mph 6.2 mph 65% 0 in 420.00 W/m2 unknown
10:54 50 °F 39.2 °F 30.2 in SE 1.2 mph 3.7 mph 65% 0 in 475.00 W/m2 unknown
10:59 50 °F 39.2 °F 30.2 in SSE 1.2 mph 2.5 mph 64% 0 in 446.00 W/m2 unknown
11:04 50 °F 39.2 °F 30.2 in SW 3.7 mph 3.7 mph 64% 0 in 438.00 W/m2 unknown
11:09 50 °F 39.2 °F 30.2 in SW 3.1 mph 5 mph 67% 0 in 387.00 W/m2 unknown
11:14 50 °F 41 °F 30.2 in SSW 4.3 mph 5 mph 68% 0 in 450.00 W/m2 unknown
11:19 50 °F 41 °F 30.2 in WSW 3.1 mph 5 mph 68% 0 in 455.00 W/m2 unknown
11:24 51.8 °F 39.2 °F 30.2 in WNW 2.5 mph 3.7 mph 67% 0 in 436.00 W/m2 unknown
11:29 51.8 °F 41 °F 30.2 in NW 1.9 mph 3.7 mph 66% 0 in 482.00 W/m2 unknown
11:34 51.8 °F 39.2 °F 30.2 in SSW 3.1 mph 3.7 mph 65% 0 in 533.00 W/m2 unknown
11:39 51.8 °F 41 °F 30.2 in WSW 2.5 mph 3.7 mph 66% 0 in 536.00 W/m2 unknown
11:44 51.8 °F 39.2 °F 30.2 in WSW 2.5 mph 3.7 mph 63% 0 in 510.00 W/m2 unknown
11:49 51.8 °F 39.2 °F 30.2 in SSE 2.5 mph 3.7 mph 63% 0 in 531.00 W/m2 unknown
11:54 53.6 °F 41 °F 30.2 in SSW 1.9 mph 3.7 mph 64% 0 in 450.00 W/m2 unknown
11:59 53.6 °F 41 °F 30.2 in West 1.9 mph 3.7 mph 64% 0 in 587.00 W/m2 unknown
12:04 53.6 °F 39.2 °F 30.2 in ESE 5.6 mph 6.8 mph 60% 0 in 522.00 W/m2 unknown
12:09 53.6 °F 39.2 °F 30.2 in SE 3.1 mph 6.8 mph 59% 0 in 410.00 W/m2 unknown
12:14 53.6 °F 39.2 °F 30.2 in ENE 3.1 mph 3.7 mph 59% 0 in 492.00 W/m2 unknown
12:19 55.4 °F 42.8 °F 30.2 in NNW 3.1 mph 3.7 mph 61% 0 in 631.00 W/m2 unknown
12:24 55.4 °F 41 °F 30.2 in North 1.9 mph 3.7 mph 60% 0 in 575.00 W/m2 unknown
12:29 55.4 °F 41 °F 30.2 in East 2.5 mph 3.7 mph 60% 0 in 541.00 W/m2 unknown
12:34 53.6 °F 39.2 °F 30.2 in East 2.5 mph 5 mph 56% 0 in 541.00 W/m2 unknown
12:39 55.4 °F 39.2 °F 30.2 in SE 3.1 mph 5 mph 57% 0 in 475.00 W/m2 unknown
12:44 55.4 °F 39.2 °F 30.2 in SW 3.1 mph 3.7 mph 56% 0 in 512.00 W/m2 unknown
12:49 55.4 °F 41 °F 30.2 in WSW 3.1 mph 5 mph 58% 0 in 483.00 W/m2 unknown
12:54 55.4 °F 41 °F 30.2 in WSW 3.7 mph 6.2 mph 59% 0 in 483.00 W/m2 unknown
12:59 55.4 °F 41 °F 30.2 in SW 5 mph 6.8 mph 60% 0 in 573.00 W/m2 unknown
13:04 55.4 °F 42.8 °F 30.2 in NW 3.7 mph 6.8 mph 60% 0 in 603.00 W/m2 unknown
13:09 55.4 °F 42.8 °F 30.2 in WNW 2.5 mph 6.2 mph 61% 0 in 489.00 W/m2 unknown
13:14 55.4 °F 42.8 °F 30.2 in WNW 1.9 mph 3.7 mph 61% 0 in 445.00 W/m2 unknown
13:19 55.4 °F 41 °F 30.2 in West 4.3 mph 6.2 mph 59% 0 in 429.00 W/m2 unknown
13:24 55.4 °F 41 °F 30.2 in West 3.7 mph 4.3 mph 57% 0 in 418.00 W/m2 unknown
13:29 55.4 °F 39.2 °F 30.2 in West 2.5 mph 5 mph 56% 0 in 422.00 W/m2 unknown
13:34 55.4 °F 41 °F 30.2 in WSW 4.3 mph 6.2 mph 56% 0 in 438.00 W/m2 unknown
13:39 55.4 °F 41 °F 30.2 in WSW 3.1 mph 6.2 mph 56% 0 in 348.00 W/m2 unknown
13:44 55.4 °F 41 °F 30.2 in West 3.1 mph 3.7 mph 56% 0 in 334.00 W/m2 unknown
13:49 55.4 °F 41 °F 30.2 in West 1.9 mph 3.7 mph 56% 0 in 390.00 W/m2 unknown
13:54 57.2 °F 41 °F 30.2 in NNE 3.1 mph 5 mph 56% 0 in 385.00 W/m2 unknown
13:59 57.2 °F 39.2 °F 30.2 in NE 3.1 mph 5 mph 51% 0 in 436.00 W/m2 unknown
14:04 57.2 °F 37.4 °F 30.2 in SSW 1.2 mph 3.1 mph 51% 0 in 388.00 W/m2 unknown
14:09 57.2 °F 37.4 °F 30.2 in ESE 4.3 mph 5 mph 50% 0 in 295.00 W/m2 unknown
14:14 57.2 °F 39.2 °F 30.2 in ESE 3.7 mph 5 mph 51% 0 in 436.00 W/m2 unknown
14:19 57.2 °F 39.2 °F 30.2 in ENE 1.9 mph 5 mph 53% 0 in 413.00 W/m2 unknown
14:24 57.2 °F 39.2 °F 30.1 in ENE 1.2 mph 3.7 mph 52% 0 in 401.00 W/m2 unknown
14:29 57.2 °F 41 °F 30.1 in South 4.3 mph 6.2 mph 55% 0 in 455.00 W/m2 unknown
14:34 57.2 °F 42.8 °F 30.1 in SSE 3.1 mph 6.2 mph 57% 0 in 420.00 W/m2 unknown
14:39 57.2 °F 39.2 °F 30.1 in ESE 3.7 mph 6.8 mph 53% 0 in 373.00 W/m2 unknown
14:44 57.2 °F 39.2 °F 30.1 in East 3.7 mph 6.8 mph 51% 0 in 448.00 W/m2 unknown
14:49 57.2 °F 39.2 °F 30.1 in East 5.6 mph 8.1 mph 51% 0 in 406.00 W/m2 unknown
14:54 57.2 °F 41 °F 30.1 in ESE 5.6 mph 8.1 mph 53% 0 in 348.00 W/m2 unknown
14:59 57.2 °F 41 °F 30.1 in SE 3.7 mph 6.2 mph 53% 0 in 359.00 W/m2 unknown
15:04 57.2 °F 39.2 °F 30.1 in ESE 3.7 mph 6.2 mph 51% 0 in 410.00 W/m2 unknown
15:09 57.2 °F 39.2 °F 30.1 in ENE 3.1 mph 6.8 mph 51% 0 in 425.00 W/m2 unknown
15:14 57.2 °F 39.2 °F 30.1 in East 5 mph 6.8 mph 51% 0 in 473.00 W/m2 unknown
15:19 57.2 °F 39.2 °F 30.1 in SE 3.1 mph 6.8 mph 51% 0 in 432.00 W/m2 unknown
15:24 57.2 °F 39.2 °F 30.1 in ESE 3.1 mph 5 mph 50% 0 in 220.00 W/m2 unknown
15:29 57.2 °F 37.4 °F 30.1 in ESE 5.6 mph 8.1 mph 49% 0 in 299.00 W/m2 unknown
15:34 57.2 °F 39.2 °F 30.1 in ESE 4.3 mph 8.1 mph 50% 0 in 311.00 W/m2 unknown
15:39 57.2 °F 37.4 °F 30.1 in East 2.5 mph 5 mph 48% 0 in 232.00 W/m2 unknown
15:44 57.2 °F 37.4 °F 30.1 in South 1.9 mph 3.1 mph 47% 0 in 162.00 W/m2 unknown
15:49 57.2 °F 37.4 °F 30.1 in SSE 1.2 mph 3.1 mph 49% 0 in 251.00 W/m2 unknown
15:54 57.2 °F 39.2 °F 30.1 in ENE 3.7 mph 6.2 mph 50% 0 in 246.00 W/m2 unknown
15:59 57.2 °F 39.2 °F 30.1 in NNE 1.9 mph 6.2 mph 50% 0 in 188.00 W/m2 unknown
16:04 57.2 °F 39.2 °F 30.1 in NW 1.2 mph 2.5 mph 51% 0 in 139.00 W/m2 unknown
16:09 57.2 °F 39.2 °F 30.1 in SSW 1.9 mph 2.5 mph 51% 0 in 120.00 W/m2 unknown
16:14 57.2 °F 39.2 °F 30.1 in Calm   1.9 mph 50% 0 in 104.00 W/m2 unknown
16:19 57.2 °F 39.2 °F 30.1 in Calm   1.2 mph 53% 0 in 107.00 W/m2 unknown
16:24 57.2 °F 39.2 °F 30.1 in SW 1.9 mph 3.7 mph 53% 0 in 109.00 W/m2 unknown
16:29 57.2 °F 41 °F 30.1 in SW 2.5 mph 3.1 mph 54% 0 in 109.00 W/m2 unknown
16:34 57.2 °F 41 °F 30.1 in SW 2.5 mph 3.7 mph 55% 0 in 97.00 W/m2 unknown
16:39 57.2 °F 41 °F 30.1 in WSW 3.1 mph 3.7 mph 56% 0 in 83.00 W/m2 unknown
16:44 57.2 °F 41 °F 30.1 in WSW 2.5 mph 3.7 mph 58% 0 in 67.00 W/m2 unknown
16:49 57.2 °F 41 °F 30.1 in WSW 1.9 mph 3.7 mph 58% 0 in 72.00 W/m2 unknown
16:54 57.2 °F 42.8 °F 30.1 in WSW 3.1 mph 3.7 mph 59% 0 in 74.00 W/m2 unknown
16:59 55.4 °F 42.8 °F 30.1 in WSW 2.5 mph 3.7 mph 60% 0 in 107.00 W/m2 unknown
17:04 57.2 °F 42.8 °F 30.1 in SW 2.5 mph 3.7 mph 60% 0 in 128.00 W/m2 unknown
17:09 57.2 °F 42.8 °F 30.1 in WSW 3.7 mph 5 mph 59% 0 in 139.00 W/m2 unknown
17:14 57.2 °F 42.8 °F 30.1 in SW 3.1 mph 5 mph 58% 0 in 132.00 W/m2 unknown
17:19 57.2 °F 42.8 °F 30.1 in SW 3.1 mph 3.7 mph 58% 0 in 105.00 W/m2 unknown
17:24 57.2 °F 41 °F 30.1 in SW 3.1 mph 5 mph 58% 0 in 65.00 W/m2 unknown
17:29 55.4 °F 41 °F 30.1 in SW 2.5 mph 3.7 mph 58% 0 in 39.00 W/m2 unknown
17:34 55.4 °F 42.8 °F 30.1 in SW 2.5 mph 3.7 mph 61% 0 in 25.00 W/m2 unknown
17:39 55.4 °F 42.8 °F 30.1 in SW 3.1 mph 3.7 mph 61% 0 in 19.00 W/m2 unknown
17:44 55.4 °F 41 °F 30.1 in WSW 3.1 mph 3.7 mph 62% 0 in 18.00 W/m2 unknown
17:49 53.6 °F 41 °F 30.1 in SW 2.5 mph 3.7 mph 64% 0 in 12.00 W/m2 unknown
17:54 53.6 °F 41 °F 30.1 in SW 1.9 mph 3.1 mph 64% 0 in 9.00 W/m2 unknown
17:59 53.6 °F 41 °F 30.1 in SW 1.2 mph 2.5 mph 66% 0 in 0.00 W/m2 unknown
18:04 51.8 °F 41 °F 30.1 in SW 1.9 mph 2.5 mph 66% 0 in 0.00 W/m2 unknown
18:09 51.8 °F 41 °F 30.1 in SW 1.9 mph 2.5 mph 68% 0 in 0.00 W/m2 unknown
18:14 51.8 °F 41 °F 30.1 in SW 1.2 mph 2.5 mph 68% 0 in 0.00 W/m2 unknown
18:19 51.8 °F 41 °F 30.1 in Calm   1.9 mph 69% 0 in 0.00 W/m2 unknown
18:24 51.8 °F 41 °F 30.1 in Calm     69% 0 in 0.00 W/m2 unknown
18:29 50 °F 41 °F 30.1 in Calm     72% 0 in 0.00 W/m2 unknown
18:34 50 °F 41 °F 30.1 in Calm     72% 0 in 0.00 W/m2 unknown
18:39 50 °F 41 °F 30.1 in Calm     71% 0 in 0.00 W/m2 unknown
18:44 50 °F 41 °F 30.1 in Calm     72% 0 in 0.00 W/m2 unknown
18:49 48.2 °F 41 °F 30.1 in Calm     72% 0 in 0.00 W/m2 unknown
18:54 48.2 °F 41 °F 30.1 in Calm     73% 0 in 0.00 W/m2 unknown
18:59 48.2 °F 41 °F 30.1 in Calm     74% 0 in 0.00 W/m2 unknown
19:04 48.2 °F 41 °F 30.1 in Calm     74% 0 in 0.00 W/m2 unknown
19:09 48.2 °F 41 °F 30.1 in Calm     75% 0 in 0.00 W/m2 unknown
19:14 48.2 °F 39.2 °F 30.1 in Calm     74% 0 in 0.00 W/m2 unknown
19:19 48.2 °F 39.2 °F 30.1 in Calm     75% 0 in 0.00 W/m2 unknown
19:24 46.4 °F 39.2 °F 30.1 in Calm     76% 0 in 0.00 W/m2 unknown
19:29 46.4 °F 39.2 °F 30.1 in Calm     76% 0 in 0.00 W/m2 unknown
19:34 46.4 °F 39.2 °F 30.1 in Calm     75% 0 in 0.00 W/m2 unknown
19:39 46.4 °F 39.2 °F 30.1 in Calm     76% 0 in 0.00 W/m2 unknown
19:44 46.4 °F 39.2 °F 30.1 in Calm     76% 0 in 0.00 W/m2 unknown
19:49 46.4 °F 39.2 °F 30.1 in Calm     76% 0 in 0.00 W/m2 unknown
19:54 46.4 °F 39.2 °F 30.1 in Calm     78% 0 in 0.00 W/m2 unknown
19:59 44.6 °F 39.2 °F 30.1 in Calm     78% 0 in 0.00 W/m2 unknown
20:04 44.6 °F 39.2 °F 30.1 in Calm     78% 0 in 0.00 W/m2 unknown
20:09 44.6 °F 39.2 °F 30.1 in Calm     78% 0 in 0.00 W/m2 unknown
20:14 44.6 °F 37.4 °F 30.1 in Calm   1.9 mph 79% 0 in 0.00 W/m2 unknown
20:19 44.6 °F 37.4 °F 30.1 in West 3.1 mph 3.7 mph 79% 0 in 0.00 W/m2 unknown
20:24 44.6 °F 37.4 °F 30.1 in West 3.1 mph 3.7 mph 78% 0 in 0.00 W/m2 unknown
20:29 44.6 °F 37.4 °F 30.1 in West 1.9 mph 3.7 mph 78% 0 in 0.00 W/m2 unknown
20:34 44.6 °F 37.4 °F 30.1 in West 2.5 mph 3.7 mph 79% 0 in 0.00 W/m2 unknown
20:39 42.8 °F 37.4 °F 30.1 in West 2.5 mph 3.7 mph 79% 0 in 0.00 W/m2 unknown
20:44 42.8 °F 37.4 °F 30.1 in West 2.5 mph 3.7 mph 80% 0 in 0.00 W/m2 unknown
20:49 42.8 °F 37.4 °F 30.1 in WNW 2.5 mph 3.7 mph 81% 0 in 0.00 W/m2 unknown
20:54 44.6 °F 37.4 °F 30.1 in WNW 1.9 mph 3.1 mph 81% 0 in 0.00 W/m2 unknown
20:59 42.8 °F 37.4 °F 30.1 in WNW 1.2 mph 2.5 mph 81% 0 in 0.00 W/m2 unknown
21:04 42.8 °F 37.4 °F 30.1 in WNW 0.6 mph 1.9 mph 81% 0 in 0.00 W/m2 unknown
21:09 42.8 °F 37.4 °F 30.1 in WNW 1.2 mph 2.5 mph 81% 0 in 0.00 W/m2 unknown
21:14 42.8 °F 37.4 °F 30.1 in WNW 1.2 mph 1.9 mph 81% 0 in 0.00 W/m2 unknown
21:19 42.8 °F 37.4 °F 30.1 in SW 1.2 mph 2.5 mph 83% 0 in 0.00 W/m2 unknown
21:24 41 °F 37.4 °F 30.1 in SW 2.5 mph 3.7 mph 83% 0 in 0.00 W/m2 unknown
21:29 41 °F 37.4 °F 30.1 in SW 2.5 mph 3.7 mph 83% 0 in 0.00 W/m2 unknown
21:34 41 °F 37.4 °F 30.1 in WSW 1.9 mph 3.1 mph 83% 0 in 0.00 W/m2 unknown
21:39 41 °F 37.4 °F 30.1 in WSW 0.6 mph 1.9 mph 83% 0 in 0.00 W/m2 unknown
21:44 41 °F 37.4 °F 30.1 in WSW 0.6 mph 1.2 mph 84% 0 in 0.00 W/m2 unknown
21:49 41 °F 37.4 °F 30.1 in Calm   1.2 mph 84% 0 in 0.00 W/m2 unknown
21:54 41 °F 37.4 °F 30.1 in West 1.9 mph 3.7 mph 84% 0 in 0.00 W/m2 unknown
21:59 41 °F 37.4 °F 30.1 in SW 3.1 mph 3.7 mph 84% 0 in 0.00 W/m2 unknown
22:04 41 °F 37.4 °F 30.1 in SW 3.1 mph 3.7 mph 84% 0 in 0.00 W/m2 unknown
22:09 41 °F 37.4 °F 30.1 in SW 3.1 mph 3.7 mph 83% 0 in 0.00 W/m2 unknown
22:14 41 °F 37.4 °F 30.1 in SSW 3.1 mph 3.7 mph 83% 0 in 0.00 W/m2 unknown
22:19 42.8 °F 37.4 °F 30.1 in SSW 3.1 mph 5 mph 83% 0 in 0.00 W/m2 unknown
22:24 42.8 °F 37.4 °F 30.1 in SSW 2.5 mph 5 mph 82% 0 in 0.00 W/m2 unknown
22:29 42.8 °F 37.4 °F 30.1 in SW 2.5 mph 3.7 mph 82% 0 in 0.00 W/m2 unknown
22:34 41 °F 37.4 °F 30.1 in SW 2.5 mph 3.7 mph 82% 0 in 0.00 W/m2 unknown
22:39 41 °F 37.4 °F 30.1 in SW 1.9 mph 3.1 mph 82% 0 in 0.00 W/m2 unknown
22:44 41 °F 35.6 °F 30.1 in SW 1.9 mph 3.7 mph 83% 0 in 0.00 W/m2 unknown
22:49 41 °F 35.6 °F 30.1 in SW 2.5 mph 3.7 mph 84% 0 in 0.00 W/m2 unknown
22:54 41 °F 35.6 °F 30.1 in SW 2.5 mph 3.7 mph 84% 0 in 0.00 W/m2 unknown
22:59 41 °F 35.6 °F 30.1 in SW 2.5 mph 3.7 mph 84% 0 in 0.00 W/m2 unknown
23:04 41 °F 35.6 °F 30.1 in WSW 3.1 mph 3.7 mph 84% 0 in 0.00 W/m2 unknown
23:09 41 °F 35.6 °F 30.1 in SW 2.5 mph 3.7 mph 84% 0 in 0.00 W/m2 unknown
23:14 39.2 °F 35.6 °F 30.1 in SW 1.9 mph 3.7 mph 84% 0 in 0.00 W/m2 unknown
23:19 39.2 °F 35.6 °F 30.1 in WSW 3.1 mph 3.7 mph 84% 0 in 0.00 W/m2 unknown
23:24 39.2 °F 35.6 °F 30.1 in WSW 3.1 mph 3.7 mph 84% 0 in 0.00 W/m2 unknown
23:29 39.2 °F 35.6 °F 30.1 in WSW 3.1 mph 3.7 mph 86% 0 in 0.00 W/m2 unknown
23:34 39.2 °F 35.6 °F 30.1 in WSW 3.1 mph 3.7 mph 86% 0 in 0.00 W/m2 unknown
23:39 39.2 °F 35.6 °F 30.1 in West 3.7 mph 3.7 mph 86% 0 in 0.00 W/m2 unknown
23:44 39.2 °F 35.6 °F 30.1 in West 3.7 mph 3.7 mph 86% 0 in 0.00 W/m2 unknown
23:49 39.2 °F 35.6 °F 30.1 in West 3.1 mph 3.7 mph 86% 0 in 0.00 W/m2 unknown
23:54 39.2 °F 35.6 °F 30.1 in West 3.1 mph 3.7 mph 86% 0 in 0.00 W/m2 unknown
23:59 39.2 °F 35.6 °F 30.1 in West 3.1 mph 3.7 mph 86% 0 in 0.00 W/m2 unknown
Stazione Meteorologica MeteoMincio Rivalta s/M (MN)
Con i complimenti di Weather Underground - 4 mb



GLOSSARIO METEOROLOGICO
Humidex
è un indice di calore introdotto originariamente in Canada, ove è, ancora oggi largamente impiegato. è utilizzato per descrivere il disagio fisiologico che può verificarsi nelle giornate umide e calde. Tale indice è sensibile in un intervallo di temperatura compreso tra 20°C e 55°C. Al di fuori di tale intervallo, anche al variare dell'umidità relativa, l'indice individua sempre le classi estreme.
Share

Non seguire questo link o sarai bannato dal sito!